Home   Weather   Toamasina   Past weeks
Flag for Madagascar

Past Weather in Toamasina, Madagascar — Yesterday and Last 2 Weeks

Now
72 °F

Scattered showers. Partly cloudy.


Feels Like: 67 °F
Forecast: 82 / 71 °F
Wind: No wind

Location: Tamatave

Current Time: May 22, 2019 at 12:03:28 am

Latest Report: May 21, 2019 at 11:00 pm


Visibility: N/A

Pressure: 30.07 "Hg

Humidity: 94%

Dew Point: 70 °F

Location of ToamasinaLocation

Past Weather in Toamasina — Graph

°F

Toamasina Temperature Yesterday

Maximum temperature yesterday: 84 °F (at 10:00 am)
Minimum temperature yesterday: 72 °F (at 12:00 am)
Average temperature yesterday: 76 °F

High & Low Weather Summary for the Past Weeks

 TemperatureHumidityPressure
High86 °F (May 7, 11:00 am)100% (May 8, 7:00 pm)30.09 "Hg (May 8, 7:00 pm)
Low64 °F (May 20, 5:00 am)58% (May 7, 10:00 am)29.83 "Hg (May 19, 1:00 am)
Average76 °F84%30.01 "Hg
* Reported May 6 11:00 pm — May 21 11:00 pm, Toamasina. Weather by CustomWeather, © 2019

Note: Actual official high and low records may vary slightly from our data, if they occured in-between our weather recording intervals... More about our weather records

Advertising

Toamasina Weather History for the Previous 24 Hours

Scroll right to see more
 ConditionsComfort  
Time TempWeatherWind HumidityBarometerVisibility
11:00 pm
Tue, May 21
72 °FScattered showers. Partly cloudy.No wind94%30.07 "HgN/A
10:00 pm72 °FThundershowers. Partly cloudy.3 mph100%30.04 "HgN/A
9:10 pm73 °FThundershowers. Partly cloudy.5 mph94%30.07 "HgN/A
9:00 pm73 °FThunderstorms. Partly cloudy.2 mph94%30.07 "Hg6 mi
8:00 pm73 °FThunderstorms. Partly cloudy.2 mph94%30.01 "Hg4 mi
7:00 pm73 °FThunderstorms. Partly cloudy.5 mph100%30.04 "Hg4 mi
6:00 pm75 °FThunderstorms. Partly cloudy.7 mph94%30.01 "Hg4 mi
5:40 pm75 °FThunderstorms. Partly cloudy.9 mph89%30.01 "Hg6 mi
5:00 pm79 °FScattered showers. Broken clouds.6 mph84%30.01 "HgN/A
4:00 pm81 °FScattered showers. Broken clouds.7 mph79%29.98 "HgN/A
3:00 pm81 °FScattered clouds.8 mph79%29.98 "HgN/A
2:00 pm84 °FScattered clouds.8 mph70%29.98 "HgN/A
1:00 pm84 °FScattered clouds.8 mph66%30.01 "HgN/A
12:00 pm84 °FScattered clouds.6 mph70%30.01 "HgN/A
11:00 am84 °FScattered clouds.6 mph62%30.04 "HgN/A
10:00 am84 °FPartly sunny.6 mph62%30.04 "HgN/A
9:00 am79 °FPartly sunny.5 mph74%30.04 "HgN/A
8:00 am75 °FPartly sunny.5 mph83%30.04 "HgN/A
7:00 am72 °FPartly sunny.2 mph94%30.01 "HgN/A
6:00 am72 °FPassing clouds.5 mph94%30.01 "HgN/A
5:00 am72 °FPassing clouds.No wind94%29.98 "HgN/A
4:00 am72 °FPassing clouds.No wind94%29.98 "HgN/A
3:00 am72 °FPassing clouds.No wind94%29.98 "HgN/A
2:00 am72 °FPassing clouds.No wind94%29.98 "HgN/A
1:00 am72 °FPassing clouds.No wind94%30.01 "HgN/A
12:00 am72 °FPassing clouds.No wind94%30.01 "HgN/A
Weather by CustomWeather, © 2019

See weather overview